Weather History for Belize, Belize

Change the Weather History Date:

Tuesday, January 1, 2013

  Actual Average Record
Temperature  
Mean Temperature 79 °F -  
Max Temperature 85 °F - 86 °F (2006)
Min Temperature 73 °F - 66 °F (1998)
Cooling Degree Days 14    
Growing Degree Days 29 (Base 50)    
Moisture  
Dew Point 74 °F    
Average Humidity 79    
Maximum Humidity 95    
Minimum Humidity 62    
Precipitation  
Precipitation 0.01 in 0.18 in - ()
Sea Level Pressure  
Sea Level Pressure 29.96 in    
Wind  
Wind Speed 4 mph ()    
Max Wind Speed 8 mph    
Max Gust Speed -    
Visibility 8.6 miles    
Events Rain    
Averages and records for this station are not official NWS values.
T = Trace of Precipitation, MM = Missing Value Source: Averaged Metar Reports

Daily Weather History Graph

Daily Weather History Graph

Search for Another Location

Airport:

Trip Planner

Search our weather history database for the weather conditions in past years. The results will help you decide how hot, cold, wet, or windy it might be!

Date:

Astronomy

Jan. 01, 2013 Rise Set
Actual Time 6:23 AM CST 5:30 PM CST
Civil Twilight 6:00 AM CST 5:53 PM CST
Nautical Twilight 5:33 AM CST 6:20 PM CST
Astronomical Twilight 5:06 AM CST 6:47 PM CST
Moon 9:20 PM CST (1/1) 9:12 AM CST (1/1)
Length of Visible Light 11h 53m
Length of Day
11h 06m
Waning Gibbous, 83% of the Moon is Illuminated
Jan 1
Waning Gibbous
Jan 4
Last Quarter
Jan 11
New
Jan 18
First Quarter
Jan 26
Full

Hourly Weather History & Observations

Time (CST) Temp. Heat Index Dew Point Humidity Pressure Visibility Wind Dir Wind Speed Gust Speed Precip Events Conditions
12:00 AM 78 °F - 73 °F 79% 30.01 in 12 mi ENE 6.9 mph - -   Partly Cloudy
3:00 AM 77 °F - 74 °F 87% 29.98 in 12 mi East 4.6 mph - - Rain Light Rain Showers
5:00 AM 75.2 °F - 73.4 °F 94% 29.98 in 6.2 mi Calm Calm - N/A   Mostly Cloudy
6:00 AM 74 °F - 73 °F 95% 29.99 in 9 mi Calm Calm - -   Partly Cloudy
6:00 AM 75.2 °F - 73.4 °F 94% 29.98 in 6.2 mi Calm Calm - N/A   Mostly Cloudy
7:00 AM 75.2 °F - 73.4 °F 94% 29.98 in 6.2 mi Calm Calm - N/A   Mostly Cloudy
8:00 AM 77.0 °F - 73.4 °F 89% 30.01 in 6.2 mi Calm Calm - N/A   Mostly Cloudy
9:00 AM 78 °F - 75 °F 89% 30.03 in 15 mi Calm Calm - -   Scattered Clouds
9:00 AM 78.8 °F - 75.2 °F 89% 30.02 in 6.2 mi Calm Calm - N/A   Mostly Cloudy
10:00 AM 84.2 °F 90.9 °F 73.4 °F 70% 30.02 in 6.2 mi ESE 6.9 mph - N/A   Mostly Cloudy
11:00 AM 84.2 °F 90.9 °F 73.4 °F 70% 30.00 in 6.2 mi SE 6.9 mph - N/A   Scattered Clouds
12:00 PM 85 °F - 75 °F 65% 29.97 in 15 mi SE 6.9 mph - -   Partly Cloudy
12:00 PM 86.0 °F 95.1 °F 75.2 °F 70% 29.97 in 6.2 mi SE 6.9 mph - N/A   Scattered Clouds
1:00 PM 86.0 °F 93.4 °F 73.4 °F 66% 29.93 in 6.2 mi SE 8.1 mph - N/A   Scattered Clouds
2:00 PM 86.0 °F 93.4 °F 73.4 °F 66% 29.91 in 6.2 mi SE 8.1 mph - N/A   Scattered Clouds
3:00 PM 84 °F - 73 °F 62% 29.90 in 15 mi SE 8.1 mph - -   Partly Cloudy
3:00 PM 84.2 °F 90.9 °F 73.4 °F 70% 29.90 in 6.2 mi SE 8.1 mph - N/A   Scattered Clouds
4:00 PM 84.2 °F 89.6 °F 71.6 °F 66% 29.89 in 6.2 mi ESE 6.9 mph - N/A   Scattered Clouds
5:00 PM 80.6 °F 85.4 °F 73.4 °F 79% 29.89 in 6.2 mi ESE 4.6 mph - N/A   Mostly Cloudy
6:00 PM 79 °F - 72 °F 75% 29.91 in 12 mi ESE 3.5 mph - -   Scattered Clouds
6:00 PM 78.8 °F - 73.4 °F 83% 29.90 in 6.2 mi ESE 3.5 mph - N/A   Mostly Cloudy
9:00 PM 77 °F - 74 °F 86% 29.95 in 12 mi ESE 4.6 mph - -   Scattered Clouds